GZP7701 UUDD-USDB

Flight info

Callsign GZP7701
Flight time N/A
Altitude 35000
Route RILPO T753 NULGA DCT UNTOR DCT UNKOR
Aircraft B77L/M-VGDW/C

Departure

Time N/A
Airport Domodedovo International Airport (UUDD)

Arrival

Time 2026-05-06 10:58
Airport Bovanenkovo Airport (USDB)
Time Latitude Longitude Altitude Speed Heading
2026-05-06 09:43 64.89689 49.49468 34636 ft 527 kts 30°
2026-05-06 09:44 64.95772 49.59098 34629 ft 527 kts 30°
2026-05-06 09:44 65.01850 49.68775 34626 ft 527 kts 30°
2026-05-06 09:45 65.07928 49.78506 34628 ft 527 kts 30°
2026-05-06 09:45 65.13997 49.88277 34621 ft 527 kts 30°
2026-05-06 09:46 65.20059 49.98093 34615 ft 527 kts 30°
2026-05-06 09:46 65.26116 50.07950 34622 ft 527 kts 30°
2026-05-06 09:47 65.32273 50.17136 34620 ft 522 kts 22°
2026-05-06 09:47 65.38798 50.24680 34621 ft 520 kts 20°
2026-05-06 09:48 65.45351 50.32054 34622 ft 521 kts 20°
2026-05-06 09:48 65.51904 50.39619 34618 ft 522 kts 21°
2026-05-06 09:49 65.58439 50.47299 34619 ft 523 kts 21°
2026-05-06 09:49 65.64984 50.55040 34613 ft 523 kts 21°
2026-05-06 09:50 65.71530 50.62813 34618 ft 523 kts 21°
2026-05-06 09:50 65.78061 50.70606 34612 ft 523 kts 21°
2026-05-06 09:51 65.84587 50.78433 34613 ft 522 kts 21°
2026-05-06 09:51 65.91063 50.86221 34613 ft 522 kts 21°
2026-05-06 09:52 65.97568 50.94084 34614 ft 521 kts 21°
2026-05-06 09:52 66.04063 51.01985 34611 ft 520 kts 21°
2026-05-06 09:53 66.10545 51.09915 34614 ft 520 kts 21°
2026-05-06 09:53 66.17020 51.17884 34617 ft 520 kts 21°
2026-05-06 09:54 66.23487 51.25887 34616 ft 519 kts 21°
2026-05-06 09:54 66.29947 51.33929 34610 ft 519 kts 22°
2026-05-06 09:55 66.36400 51.42008 34618 ft 519 kts 22°
2026-05-06 09:55 66.42849 51.50129 34608 ft 519 kts 22°
2026-05-06 09:56 66.49295 51.58293 34615 ft 519 kts 22°
2026-05-06 09:56 66.55730 51.66493 34614 ft 518 kts 22°
2026-05-06 09:57 66.62114 51.74674 34612 ft 518 kts 22°
2026-05-06 09:57 66.68539 51.82955 34613 ft 518 kts 22°
2026-05-06 09:58 66.74925 51.91384 34604 ft 520 kts 27°
2026-05-06 09:58 66.80666 52.02677 34618 ft 526 kts 41°
2026-05-06 09:59 66.85396 52.16948 34611 ft 529 kts 51°
2026-05-06 09:59 66.89780 52.31981 34611 ft 529 kts 52°
2026-05-06 10:00 66.94124 52.46921 34607 ft 528 kts 51°
2026-05-06 10:00 66.98538 52.61946 34610 ft 528 kts 51°
2026-05-06 10:01 67.02959 52.76983 34609 ft 528 kts 51°
2026-05-06 10:01 67.07358 52.92040 34612 ft 528 kts 52°
2026-05-06 10:02 67.11741 53.07164 34616 ft 528 kts 52°
2026-05-06 10:02 67.16109 53.22352 34611 ft 528 kts 52°
2026-05-06 10:03 67.20468 53.37615 34611 ft 528 kts 52°
2026-05-06 10:03 67.24783 53.52830 34611 ft 528 kts 52°
2026-05-06 10:04 67.29107 53.68178 34608 ft 528 kts 52°
2026-05-06 10:04 67.33419 53.83595 34602 ft 528 kts 53°
2026-05-06 10:05 67.37714 53.99061 34599 ft 528 kts 53°
2026-05-06 10:05 67.41993 54.14576 34604 ft 527 kts 53°
2026-05-06 10:06 67.46253 54.30129 34591 ft 527 kts 53°
2026-05-06 10:06 67.50497 54.45738 34598 ft 527 kts 53°
2026-05-06 10:07 67.54718 54.61370 34599 ft 526 kts 53°
2026-05-06 10:07 67.58927 54.77075 34586 ft 526 kts 53°
2026-05-06 10:08 67.63115 54.92811 34587 ft 526 kts 54°
2026-05-06 10:08 67.67285 55.08590 34586 ft 526 kts 54°
2026-05-06 10:09 67.71413 55.24327 34583 ft 525 kts 54°
2026-05-06 10:09 67.75557 55.40238 34583 ft 525 kts 54°
2026-05-06 10:10 67.79684 55.56198 34583 ft 526 kts 54°
2026-05-06 10:10 67.83793 55.72206 34565 ft 526 kts 54°
2026-05-06 10:11 67.87883 55.88258 34571 ft 525 kts 54°
2026-05-06 10:11 67.91954 56.04355 34569 ft 524 kts 55°
2026-05-06 10:12 67.95975 56.20370 34562 ft 524 kts 55°
2026-05-06 10:12 68.00002 56.36525 34573 ft 524 kts 55°
2026-05-06 10:13 68.04025 56.52785 34556 ft 524 kts 55°
2026-05-06 10:13 68.08025 56.69075 34557 ft 524 kts 55°
2026-05-06 10:14 68.12010 56.85427 34550 ft 524 kts 56°
2026-05-06 10:14 68.15310 56.99062 34549 ft 524 kts 56°
2026-05-06 10:15 68.19928 57.18287 34554 ft 524 kts 56°
2026-05-06 10:15 68.23205 57.32031 34537 ft 524 kts 56°
2026-05-06 10:16 68.27128 57.48604 34539 ft 524 kts 56°
2026-05-06 10:16 68.31034 57.65228 34548 ft 525 kts 56°
2026-05-06 10:17 68.34932 57.81949 34530 ft 525 kts 56°
2026-05-06 10:17 68.38810 57.98700 34525 ft 524 kts 56°
2026-05-06 10:18 68.42691 58.15426 34531 ft 523 kts 56°
2026-05-06 10:18 68.46633 58.32034 34528 ft 522 kts 55°
2026-05-06 10:19 68.50574 58.48678 34518 ft 522 kts 56°
2026-05-06 10:19 68.54483 58.65382 34519 ft 522 kts 56°
2026-05-06 10:20 68.58366 58.82155 34520 ft 522 kts 56°
2026-05-06 10:20 68.62206 58.98886 34520 ft 522 kts 56°
2026-05-06 10:21 68.66055 59.15784 34512 ft 522 kts 56°
2026-05-06 10:21 68.69886 59.32730 34511 ft 522 kts 56°
2026-05-06 10:22 68.73702 59.49740 34502 ft 521 kts 57°
2026-05-06 10:22 68.77490 59.66759 34502 ft 520 kts 57°
2026-05-06 10:23 68.81257 59.83821 34502 ft 520 kts 57°
2026-05-06 10:23 68.85004 60.00926 34500 ft 520 kts 57°
2026-05-06 10:24 68.88730 60.18073 34496 ft 519 kts 57°
2026-05-06 10:24 68.92442 60.35293 34496 ft 519 kts 57°
2026-05-06 10:25 68.96131 60.52544 34493 ft 519 kts 57°
2026-05-06 10:25 68.99780 60.69748 34496 ft 519 kts 58°
2026-05-06 10:26 69.03436 60.87122 34497 ft 519 kts 58°
2026-05-06 10:26 69.07074 61.04552 34495 ft 519 kts 58°
2026-05-06 10:27 69.10694 61.22042 34491 ft 519 kts 58°
2026-05-06 10:27 69.14294 61.39577 34492 ft 518 kts 58°
2026-05-06 10:28 69.17871 61.57147 34492 ft 518 kts 58°
2026-05-06 10:28 69.21429 61.74765 34492 ft 518 kts 58°
2026-05-06 10:29 69.24966 61.92432 34494 ft 518 kts 59°
2026-05-06 10:29 69.28485 62.10150 34497 ft 518 kts 59°
2026-05-06 10:30 69.31952 62.27758 34482 ft 509 kts 59°
2026-05-06 10:30 69.33644 62.36421 34479 ft 495 kts 59°
2026-05-06 10:30 69.35285 62.44854 34392 ft 485 kts 59°
2026-05-06 10:31 69.36900 62.53177 34068 ft 479 kts 59°
2026-05-06 10:31 69.38499 62.61444 33616 ft 477 kts 59°
2026-05-06 10:31 69.40090 62.69701 33064 ft 477 kts 59°
2026-05-06 10:31 69.41675 62.77957 32547 ft 475 kts 58°
2026-05-06 10:32 69.43254 62.86217 32082 ft 472 kts 58°
2026-05-06 10:32 69.44810 62.94395 31632 ft 469 kts 58°
2026-05-06 10:32 69.46355 63.02549 31203 ft 466 kts 58°
2026-05-06 10:32 69.47886 63.10657 30772 ft 464 kts 58°
2026-05-06 10:33 69.49409 63.18753 30327 ft 462 kts 58°
2026-05-06 10:33 69.50920 63.26815 29907 ft 460 kts 58°
2026-05-06 10:33 69.52420 63.34849 29468 ft 458 kts 57°
2026-05-06 10:33 69.53912 63.42877 29016 ft 455 kts 57°
2026-05-06 10:34 69.55386 63.50837 28620 ft 450 kts 57°
2026-05-06 10:34 69.56840 63.58718 28230 ft 446 kts 58°
2026-05-06 10:34 69.58278 63.66547 27829 ft 442 kts 57°
2026-05-06 10:34 69.59700 63.74310 27414 ft 439 kts 57°
2026-05-06 10:35 69.61111 63.82043 27013 ft 436 kts 57°
2026-05-06 10:35 69.62489 63.89621 26632 ft 432 kts 57°
2026-05-06 10:35 69.63873 63.97267 26259 ft 429 kts 57°
2026-05-06 10:35 69.65241 64.04849 25886 ft 426 kts 57°
2026-05-06 10:36 69.66599 64.12400 25527 ft 423 kts 58°
2026-05-06 10:36 69.67940 64.19885 25170 ft 420 kts 58°
2026-05-06 10:36 69.69268 64.27328 24809 ft 416 kts 57°
2026-05-06 10:36 69.70584 64.34731 24448 ft 414 kts 57°
2026-05-06 10:37 69.71890 64.42098 24085 ft 412 kts 58°
2026-05-06 10:37 69.73186 64.49435 23699 ft 410 kts 58°
2026-05-06 10:37 69.74478 64.56774 23328 ft 409 kts 57°
2026-05-06 10:37 69.75765 64.64111 22795 ft 410 kts 58°
2026-05-06 10:38 69.77055 64.71483 22190 ft 411 kts 58°
2026-05-06 10:38 69.78310 64.78711 21500 ft 395 kts 58°
2026-05-06 10:38 69.79513 64.85687 20849 ft 380 kts 58°
2026-05-06 10:38 69.80665 64.92379 20296 ft 364 kts 58°
2026-05-06 10:39 69.81771 64.98819 19747 ft 351 kts 58°
2026-05-06 10:39 69.82838 65.05035 19219 ft 339 kts 58°
2026-05-06 10:39 69.83874 65.11082 18684 ft 331 kts 58°
2026-05-06 10:39 69.84889 65.17009 18197 ft 327 kts 58°
2026-05-06 10:40 69.85915 65.22997 17751 ft 336 kts 59°
2026-05-06 10:40 69.86959 65.29115 17216 ft 340 kts 59°
2026-05-06 10:40 69.87996 65.35221 16686 ft 343 kts 59°
2026-05-06 10:40 69.89049 65.41451 16155 ft 344 kts 60°
2026-05-06 10:41 69.90105 65.47729 15626 ft 346 kts 60°
2026-05-06 10:41 69.91163 65.54040 15121 ft 347 kts 60°
2026-05-06 10:41 69.92221 65.60371 14598 ft 349 kts 60°
2026-05-06 10:41 69.93280 65.66729 14094 ft 345 kts 61°
2026-05-06 10:42 69.94296 65.72870 13551 ft 328 kts 61°
2026-05-06 10:42 69.95258 65.78703 13122 ft 310 kts 61°
2026-05-06 10:42 69.96163 65.84205 12660 ft 293 kts 61°
2026-05-06 10:42 69.97031 65.89482 12358 ft 288 kts 61°
2026-05-06 10:43 69.97904 65.94778 12105 ft 292 kts 61°
2026-05-06 10:43 69.98793 66.00183 11739 ft 297 kts 61°
2026-05-06 10:43 69.99684 66.05621 11427 ft 295 kts 62°
2026-05-06 10:44 70.01420 66.16294 10774 ft 287 kts 62°
2026-05-06 10:44 70.02268 66.21525 10447 ft 283 kts 62°
2026-05-06 10:44 70.03104 66.26697 10135 ft 279 kts 62°
2026-05-06 10:44 70.03927 66.31806 9825 ft 276 kts 62°
2026-05-06 10:45 70.04729 66.36792 9527 ft 272 kts 62°
2026-05-06 10:45 70.05530 66.41782 9194 ft 269 kts 62°
2026-05-06 10:45 70.06317 66.46700 8852 ft 265 kts 62°
2026-05-06 10:45 70.07094 66.51572 8502 ft 262 kts 62°
2026-05-06 10:46 70.07864 66.56402 8185 ft 259 kts 62°
2026-05-06 10:46 70.08617 66.61148 7898 ft 255 kts 62°
2026-05-06 10:46 70.09359 66.65832 7634 ft 252 kts 62°
2026-05-06 10:46 70.10099 66.70505 7362 ft 253 kts 62°
2026-05-06 10:47 70.10844 66.75221 7120 ft 255 kts 62°
2026-05-06 10:47 70.11590 66.79961 6870 ft 257 kts 62°
2026-05-06 10:47 70.12339 66.84731 6615 ft 257 kts 62°
2026-05-06 10:47 70.13087 66.89505 6358 ft 257 kts 62°
2026-05-06 10:48 70.13825 66.94232 6091 ft 252 kts 62°
2026-05-06 10:48 70.14547 66.98874 5818 ft 247 kts 62°
2026-05-06 10:48 70.15261 67.03459 5544 ft 247 kts 62°
2026-05-06 10:48 70.15977 67.08072 5278 ft 249 kts 62°
2026-05-06 10:49 70.16697 67.12712 5029 ft 249 kts 62°
2026-05-06 10:49 70.17418 67.17368 4760 ft 250 kts 63°
2026-05-06 10:49 70.18138 67.22049 4486 ft 251 kts 63°
2026-05-06 10:49 70.18857 67.26727 4231 ft 250 kts 63°
2026-05-06 10:50 70.19571 67.31387 3970 ft 248 kts 62°
2026-05-06 10:50 70.20453 67.35616 3655 ft 240 kts 46°
2026-05-06 10:50 70.21545 67.39206 3401 ft 237 kts 43°
2026-05-06 10:50 70.22676 67.42741 3139 ft 237 kts 43°
2026-05-06 10:51 70.23810 67.46311 2883 ft 239 kts 43°
2026-05-06 10:51 70.24935 67.49896 2609 ft 237 kts 43°
2026-05-06 10:51 70.26051 67.53492 2352 ft 237 kts 44°
2026-05-06 10:51 70.27162 67.57102 2103 ft 236 kts 44°
2026-05-06 10:52 70.28249 67.60656 2021 ft 230 kts 44°
2026-05-06 10:52 70.29307 67.64140 1978 ft 224 kts 44°
2026-05-06 10:52 70.30327 67.67509 1958 ft 218 kts 44°
2026-05-06 10:52 70.31321 67.70799 1965 ft 209 kts 44°
2026-05-06 10:53 70.32259 67.73909 2034 ft 198 kts 44°
2026-05-06 10:53 70.32964 67.77400 1944 ft 197 kts 62°
2026-05-06 10:53 70.33573 67.81047 2015 ft 199 kts 59°
2026-05-06 10:53 70.34213 67.84709 2056 ft 201 kts 58°
2026-05-06 10:54 70.34879 67.88329 2068 ft 202 kts 57°
2026-05-06 10:54 70.35559 67.92003 2066 ft 203 kts 58°
2026-05-06 10:54 70.36225 67.95656 2001 ft 198 kts 58°
2026-05-06 10:54 70.36864 67.99214 1854 ft 190 kts 59°
2026-05-06 10:55 70.37438 68.02645 1838 ft 176 kts 64°
2026-05-06 10:55 70.37733 68.05899 1978 ft 151 kts 81°
2026-05-06 10:55 70.37600 68.08798 1831 ft 139 kts 105°
2026-05-06 10:55 70.37054 68.11206 1589 ft 144 kts 132°
2026-05-06 10:56 70.36326 68.13260 1393 ft 140 kts 128°
2026-05-06 10:56 70.35747 68.15581 1134 ft 142 kts 117°
2026-05-06 10:56 70.35176 68.18106 984 ft 151 kts 119°
2026-05-06 10:56 70.34550 68.20702 714 ft 156 kts 122°
2026-05-06 10:57 70.33908 68.23308 552 ft 156 kts 121°
2026-05-06 10:57 70.33281 68.25903 363 ft 151 kts 121°
2026-05-06 10:57 70.32693 68.28377 209 ft 143 kts 120°
2026-05-06 10:57 70.32135 68.30680 51 ft 131 kts 119°
2026-05-06 10:58 70.31658 68.32737 35 ft 105 kts 126°
2026-05-06 10:58 70.31397 68.33819 34 ft 23 kts 126°
2026-05-06 10:58 70.31336 68.34022 35 ft 10 kts 148°
2026-05-06 10:58 70.31321 68.34064 35 ft 0 kts 122°
2026-05-06 10:59 70.31319 68.34095 35 ft 0 kts 97°
2026-05-06 10:59 70.31320 68.34105 34 ft 0 kts 88°
2026-05-06 10:59 70.31300 68.34213 36 ft 2 kts 181°
2026-05-06 10:59 70.31310 68.34136 34 ft 14 kts 302°
2026-05-06 11:00 70.31429 68.33673 33 ft 34 kts 308°
2026-05-06 11:00 70.31559 68.33109 35 ft 32 kts 304°
2026-05-06 11:00 70.31672 68.32767 34 ft 20 kts 355°
2026-05-06 11:00 70.31820 68.33005 33 ft 24 kts 36°
2026-05-06 11:01 70.31854 68.33188 33 ft 4 kts 103°
2026-05-06 11:01 70.31851 68.33231 33 ft 2 kts 93°
2026-05-06 11:01 70.31857 68.33281 33 ft 5 kts 56°
2026-05-06 11:01 70.31871 68.33324 33 ft 0 kts 36°